Location: Chiroubles
(46.1812°N, 4.6660°E)
Time: 15:02:03
(UTC+00:00)

Ariane Rocket - Pass Details

Date: 15 August 2020
Orbit: 760 x 769 km, 98.7° (Epoch: 22 September)

Event Time Altitude Azimuth Distance (km) Brightness Sun altitude
Rises 19:10:48 0° 162° (SSE) 3,214 5.8 -4.2°
Reaches altitude 10° 19:13:05 10° 161° (SSE) 2,291 5.1 -4.5°
Maximum altitude 19:18:09 84° 73° (ENE) 772 3.0 -5.3°
Drops below altitude 10° 19:23:13 10° 347° (NNW) 2,305 6.1 -6.1°
Sets 19:25:32 0° 347° (NNW) 3,234 6.9 -6.5°
